Wind_Speed
25 22 19 17 16 15 14 12 12 11 10 10 9 9 7 6 5 5 5 5 6 7 9 11 12 14 15 16 18 18 19 18 18 18 18 18 17 16 14 13 12 12 12 13
22 19 17 17 16 14 13 12 11 11 10 10 9 8 7 5 5 5 4 5 5 6 8 10 11 13 15 16 18 19 19 19 19 18 19 18 17 16 15 14 13 13 12 12
18 17 17 16 14 13 12 12 12 11 10 10 9 7 6 4 4 3 3 4 5 6 7 9 11 13 15 16 18 19 20 20 19 19 19 19 19 18 17 16 14 13 12 12
19 18 16 15 14 13 13 12 12 12 10 9 8 7 6 4 3 2 2 3 4 5 7 9 10 12 14 16 18 19 20 20 20 20 20 20 19 19 18 17 15 14 13 12
17 16 15 14 14 14 13 12 12 11 10 9 8 7 5 4 3 1 2 3 4 5 7 9 10 12 14 16 17 19 20 20 20 20 20 20 20 19 19 18 16 15 13 12
17 16 15 14 14 14 13 12 12 12 10 9 8 6 5 4 3 1 2 2 3 5 7 8 10 12 14 15 17 19 20 20 20 21 20 20 20 20 20 19 17 15 14 12
16 15 14 14 13 13 13 12 12 11 10 8 7 6 5 5 3 2 2 2 3 5 6 8 10 12 13 15 17 18 19 20 20 20 21 21 20 21 20 20 19 17 15 14
13 13 13 13 13 12 12 12 12 11 9 8 7 6 6 5 3 2 2 2 3 4 6 8 9 11 13 14 16 18 19 20 20 20 21 21 21 21 21 20 19 18 16 15
12 12 12 12 12 12 12 12 11 11 9 8 7 6 6 6 4 3 2 2 3 4 6 7 9 10 12 14 16 17 19 19 20 21 21 21 21 21 21 20 20 19 17 15
11 11 11 11 11 11 11 11 11 10 10 8 7 7 7 7 6 4 2 2 2 4 5 7 9 10 12 13 15 16 18 19 20 20 21 21 21 21 21 20 20 19 18 16
10 10 10 11 11 11 11 11 11 10 10 9 8 7 8 7 6 5 3 2 2 3 5 7 8 10 11 13 14 15 17 18 19 20 20 20 20 20 20 20 20 19 19 17
9 9 10 10 11 11 10 10 11 11 10 9 8 7 8 8 7 5 4 2 2 3 5 7 8 9 11 12 14 15 16 17 18 19 20 20 20 20 20 20 20 19 19 18
9 9 10 11 11 11 11 11 11 11 10 10 8 8 9 8 7 6 4 3 3 3 5 6 8 9 11 12 13 14 15 17 18 19 19 20 19 19 19 19 19 19 19 18
10 10 11 11 11 12 12 12 12 11 10 10 9 9 10 9 8 7 5 4 4 4 5 6 8 9 10 11 12 14 15 16 17 18 19 19 19 19 19 19 19 19 19 19
12 12 12 13 13 13 12 12 12 11 11 10 10 10 10 10 8 7 6 5 4 5 5 6 7 9 10 11 12 13 14 16 17 18 18 19 19 19 18 18 18 18 18 18
13 14 14 13 14 14 13 12 12 12 12 11 11 10 11 10 9 8 7 6 6 6 6 7 8 9 10 11 12 13 14 15 16 17 18 18 18 18 18 18 18 18 18 18
15 15 14 14 15 15 12 12 14 13 12 12 12 11 12 11 11 10 9 8 7 7 7 8 8 9 10 11 12 13 14 15 16 17 18 18 17 17 17 18 17 17 17 17
15 15 15 15 15 15 12 14 14 14 13 13 13 13 13 13 12 11 10 10 9 9 8 9 9 10 10 11 12 13 14 15 16 17 17 18 18 17 18 18 17 17 17 16
16 16 16 16 16 14 13 14 15 14 13 14 14 14 14 14 13 13 12 11 11 10 10 10 10 10 11 11 12 13 14 15 16 17 17 18 18 18 18 18 18 17 17 16
18 18 18 18 17 15 14 16 16 15 14 15 16 15 15 15 14 14 14 13 13 12 12 11 11 11 12 12 13 13 14 15 16 17 18 18 18 19 19 19 18 17 17 16
20 20 20 20 19 16 16 18 17 17 16 18 17 17 17 16 16 16 15 15 15 14 13 13 13 13 13 13 14 14 15 16 17 17 18 19 19 19 19 19 19 18 17 17
22 22 22 22 21 18 19 19 20 20 20 20 19 19 19 19 19 18 17 17 16 16 16 15 15 15 15 15 15 16 16 17 17 18 19 19 20 20 20 21 20 19 18 17
25 24 24 24 23 22 22 23 22 22 22 22 22 22 22 21 21 21 20 19 19 18 18 17 17 16 16 16 17 17 18 18 19 19 20 21 21 21 21 22 22 21 19 18
28 28 29 27 25 25 25 26 26 26 26 25 25 25 24 24 23 23 22 22 21 20 20 19 19 18 18 18 19 19 19 20 20 21 21 22 22 22 23 23 23 22 21 20
32 33 33 32 29 30 29 29 29 29 29 28 28 28 27 26 26 25 25 24 23 23 22 22 21 21 21 20 21 21 21 21 22 22 23 23 23 23 24 24 24 23 23 22
35 36 37 36 34 35 33 33 33 33 32 31 31 30 29 28 28 27 27 26 26 25 25 24 24 23 23 23 23 23 23 23 23 24 24 24 24 25 25 25 25 24 24 23
Wind_Direction
221 224 227 231 237 242 251 262 270 277 285 293 295 295 297 300 308 318 328 344 359 8 10 14 16 16 15 13 11 10 8 6 4 1 358 355 352 348 343 334 324 312 297 282
217 220 221 226 232 238 247 252 262 271 279 285 287 289 290 290 301 310 325 349 7 14 18 19 18 18 17 14 12 11 9 6 4 1 360 358 355 351 346 340 331 320 306 294
213 214 220 224 229 235 243 249 257 266 271 276 275 277 278 284 296 306 327 353 8 17 22 21 19 16 14 13 11 10 8 7 5 2 0 359 356 353 348 344 339 331 318 305
203 208 215 220 225 230 238 246 253 261 267 266 263 263 266 267 267 294 330 356 9 19 23 20 17 14 13 12 10 9 9 7 6 4 3 2 360 357 355 352 347 340 332 319
199 205 211 218 224 228 237 245 251 255 259 260 258 257 253 243 236 272 327 352 9 20 23 19 16 13 12 11 11 10 9 7 7 7 5 5 3 2 1 359 354 350 344 333
195 202 209 216 222 228 238 246 250 252 255 253 255 255 242 232 233 272 318 346 9 19 20 17 14 12 11 12 11 10 9 9 9 9 9 9 7 6 5 4 1 359 356 351
194 202 211 217 223 229 238 244 247 250 250 250 249 249 241 233 240 271 306 344 9 16 16 15 12 11 11 11 11 10 10 10 11 11 11 11 11 11 10 8 7 7 5 2
194 202 211 218 226 231 238 242 248 250 247 245 244 246 239 236 245 265 295 343 5 11 11 10 10 10 10 11 11 11 11 11 12 12 12 12 12 12 12 12 11 11 9 7
197 207 216 225 232 236 240 245 248 250 245 243 242 240 234 240 247 256 271 318 351 1 5 8 8 9 9 10 11 12 12 13 13 13 13 12 12 13 14 14 14 14 14 13
202 212 223 232 237 241 246 249 250 249 246 244 241 235 232 235 240 243 253 297 341 355 3 8 8 8 9 10 12 12 12 13 13 13 13 12 14 14 15 16 16 16 16 16
212 222 230 238 244 245 250 249 248 248 248 249 242 233 229 232 232 233 241 274 328 349 357 360 2 4 7 8 9 10 10 11 12 12 12 12 14 15 16 16 17 18 19 19
223 233 239 244 245 248 250 248 247 247 247 248 242 228 228 228 226 229 233 251 305 338 350 355 358 2 4 5 5 6 7 8 10 11 12 12 13 15 17 17 17 18 18 19
235 239 246 244 246 249 250 248 246 244 245 245 237 227 227 225 225 228 232 247 289 322 339 348 355 359 1 1 2 3 5 6 7 9 10 11 13 14 15 16 16 16 17 18
245 246 249 249 248 248 248 248 247 244 243 238 232 226 227 225 225 228 235 250 277 306 325 338 347 352 355 357 359 2 3 4 6 7 8 9 11 13 13 14 15 15 16 17
257 253 253 254 253 251 247 247 246 244 241 235 226 225 226 225 226 231 236 248 268 293 312 326 336 344 349 352 355 358 1 3 4 5 5 7 8 9 10 11 12 13 14 15
265 262 255 253 253 252 248 248 246 242 238 232 226 224 227 227 231 234 240 250 266 285 301 314 325 334 341 346 350 353 357 359 0 1 2 2 3 5 7 7 7 8 9 10
268 265 259 255 254 254 249 247 245 242 239 235 230 228 228 230 234 238 245 253 265 280 292 304 315 323 330 337 343 347 350 353 355 356 358 359 359 360 1 1 2 2 3 4
267 264 262 260 257 256 252 249 247 244 240 238 234 233 233 235 238 242 248 255 266 276 286 297 306 314 321 327 333 339 343 346 348 351 353 355 355 355 355 355 355 355 356 357
265 264 263 262 261 257 252 251 248 244 241 240 237 237 239 240 242 246 251 258 265 273 282 291 298 304 311 318 325 331 335 339 341 344 347 349 351 351 350 350 349 348 348 349
264 262 262 262 261 256 250 250 250 247 245 243 242 241 242 243 245 248 253 259 265 271 279 286 292 298 304 310 317 323 328 332 336 338 341 342 344 345 345 345 344 342 342 342
262 261 261 260 259 254 249 250 251 250 246 246 247 246 245 246 248 251 255 260 265 270 275 281 287 292 298 303 308 314 320 325 329 332 335 337 338 339 339 340 339 338 337 336
264 263 261 259 258 254 250 250 250 251 250 250 249 248 248 250 252 254 258 261 264 268 272 278 283 287 292 297 302 306 312 317 322 326 329 331 332 333 334 335 335 333 331 329
262 262 260 258 258 255 252 251 250 251 251 251 251 250 251 253 254 256 259 261 263 266 269 274 278 283 287 291 296 301 307 311 315 320 323 325 327 328 329 331 331 330 328 325
260 259 259 257 256 254 254 252 251 251 251 251 251 251 252 253 255 257 259 261 263 265 267 270 274 278 282 287 292 297 302 307 310 314 317 320 322 323 324 326 327 326 324 322
258 258 258 257 255 253 252 252 251 251 251 251 251 251 252 254 255 257 259 260 262 264 265 268 271 275 279 284 288 293 297 302 306 309 312 315 317 319 320 321 322 322 320 318
259 258 258 257 255 253 250 250 251 252 252 252 252 251 252 253 254 255 257 258 260 262 264 266 269 272 276 281 285 289 293 297 301 304 308 311 313 314 316 316 317 317 316 315
Height
5825 5832 5837 5841 5844 5846 5847 5849 5849 5849 5849 5849 5848 5847 5846 5845 5844 5843 5842 5840 5839 5837 5835 5832 5830 5827 5824 5821 5817 5813 5810 5806 5802 5798 5794 5790 5787 5784 5781 5778 5776 5775 5774 5773
5825 5830 5835 5838 5841 5843 5845 5846 5847 5847 5847 5847 5846 5846 5845 5844 5843 5842 5841 5840 5838 5836 5834 5832 5830 5827 5824 5821 5817 5813 5809 5805 5802 5798 5794 5790 5786 5783 5780 5777 5774 5772 5771 5770
5824 5830 5833 5836 5839 5841 5843 5844 5845 5845 5845 5845 5845 5845 5844 5843 5842 5841 5840 5839 5837 5836 5834 5832 5829 5827 5824 5821 5817 5813 5809 5805 5801 5797 5793 5789 5786 5782 5778 5775 5772 5770 5768 5766
5822 5827 5830 5834 5837 5839 5841 5842 5842 5843 5843 5843 5844 5843 5843 5842 5841 5841 5840 5838 5837 5835 5833 5831 5829 5826 5824 5820 5817 5813 5809 5805 5801 5797 5793 5789 5785 5781 5777 5774 5770 5768 5765 5763
5821 5826 5829 5832 5835 5837 5838 5839 5840 5841 5841 5842 5841 5842 5842 5841 5840 5840 5839 5837 5836 5835 5833 5831 5829 5826 5823 5820 5817 5813 5809 5805 5801 5797 5793 5789 5785 5781 5777 5773 5769 5766 5763 5761
5821 5825 5828 5831 5833 5835 5836 5838 5838 5839 5839 5840 5840 5840 5840 5840 5839 5839 5838 5837 5835 5834 5832 5830 5828 5826 5823 5820 5817 5813 5810 5806 5801 5797 5793 5789 5785 5781 5777 5773 5769 5765 5762 5760
5821 5824 5827 5830 5832 5834 5835 5836 5837 5837 5837 5838 5838 5838 5839 5838 5838 5837 5837 5836 5835 5833 5832 5830 5828 5826 5823 5820 5817 5814 5810 5806 5802 5798 5794 5790 5786 5781 5777 5773 5769 5765 5762 5759
5821 5824 5827 5829 5831 5832 5833 5834 5836 5836 5836 5836 5836 5836 5838 5837 5837 5836 5836 5835 5834 5833 5831 5830 5828 5826 5823 5820 5817 5814 5810 5807 5803 5799 5795 5791 5786 5782 5778 5774 5770 5766 5763 5760
5821 5824 5826 5828 5829 5831 5831 5832 5833 5834 5834 5834 5835 5836 5836 5836 5836 5836 5835 5834 5834 5833 5831 5830 5828 5825 5823 5820 5817 5814 5811 5807 5804 5800 5796 5791 5787 5783 5779 5775 5771 5767 5763 5760
5821 5824 5825 5827 5828 5829 5830 5830 5831 5832 5832 5832 5833 5834 5835 5835 5835 5835 5834 5834 5833 5832 5831 5829 5827 5825 5823 5820 5818 5815 5811 5808 5804 5800 5797 5793 5788 5784 5780 5776 5772 5768 5765 5761
5821 5823 5825 5826 5826 5827 5828 5829 5829 5829 5830 5831 5831 5835 5833 5833 5834 5834 5833 5833 5832 5831 5830 5829 5827 5825 5823 5820 5818 5815 5812 5809 5805 5801 5797 5793 5789 5785 5781 5778 5774 5770 5766 5763
5821 5822 5823 5824 5825 5825 5826 5827 5827 5828 5829 5829 5829 5834 5831 5832 5832 5832 5832 5832 5831 5830 5829 5828 5826 5824 5822 5820 5817 5815 5812 5809 5806 5802 5798 5794 5791 5787 5783 5779 5775 5772 5768 5765
5820 5821 5822 5823 5825 5825 5824 5825 5825 5826 5826 5827 5828 5832 5829 5830 5830 5830 5830 5830 5830 5829 5828 5827 5825 5824 5822 5819 5817 5815 5812 5809 5806 5803 5799 5795 5792 5788 5784 5781 5777 5773 5770 5766
5819 5820 5821 5821 5821 5821 5822 5822 5823 5823 5824 5825 5826 5827 5827 5827 5828 5828 5829 5829 5828 5828 5827 5826 5824 5823 5821 5819 5817 5814 5812 5809 5806 5803 5800 5796 5792 5789 5785 5782 5778 5775 5771 5768
5817 5818 5818 5818 5818 5819 5819 5820 5820 5821 5822 5823 5824 5824 5825 5825 5826 5826 5827 5827 5827 5826 5826 5825 5823 5822 5820 5818 5816 5814 5811 5809 5806 5803 5800 5796 5793 5789 5786 5783 5779 5776 5772 5769
5815 5815 5815 5815 5815 5816 5817 5818 5818 5818 5819 5820 5821 5822 5823 5823 5824 5824 5825 5825 5825 5824 5824 5823 5822 5820 5819 5817 5815 5813 5811 5808 5805 5802 5799 5796 5793 5790 5786 5783 5780 5776 5773 5770
5811 5812 5812 5813 5812 5813 5815 5815 5815 5815 5817 5818 5819 5820 5820 5821 5821 5822 5822 5822 5822 5822 5822 5821 5820 5818 5817 5815 5814 5812 5809 5807 5804 5802 5799 5796 5792 5789 5786 5783 5780 5777 5773 5770
5808 5808 5809 5809 5810 5811 5814 5812 5812 5813 5814 5815 5816 5817 5817 5818 5819 5819 5820 5820 5820 5819 5819 5818 5817 5816 5815 5813 5812 5810 5808 5806 5803 5800 5797 5794 5791 5788 5785 5782 5779 5776 5773 5770
5805 5805 5805 5806 5806 5807 5810 5808 5808 5810 5811 5812 5813 5813 5814 5815 5816 5816 5817 5817 5817 5816 5816 5815 5814 5813 5812 5811 5809 5808 5806 5804 5801 5799 5796 5793 5790 5787 5784 5781 5778 5775 5772 5769
5801 5801 5802 5802 5802 5804 5807 5805 5805 5807 5808 5808 5809 5810 5810 5811 5812 5813 5813 5813 5813 5813 5812 5812 5811 5810 5809 5808 5806 5805 5803 5801 5799 5796 5794 5791 5788 5785 5782 5779 5776 5773 5770 5767
5797 5796 5797 5797 5797 5800 5802 5801 5802 5804 5805 5804 5804 5805 5806 5807 5808 5809 5809 5809 5809 5809 5809 5808 5807 5806 5806 5804 5803 5802 5800 5798 5796 5793 5791 5788 5785 5783 5780 5777 5774 5771 5768 5765
5791 5791 5792 5792 5792 5797 5796 5796 5797 5798 5798 5799 5799 5800 5801 5802 5803 5804 5804 5804 5804 5804 5804 5804 5803 5802 5802 5801 5799 5798 5796 5795 5793 5790 5788 5785 5782 5779 5777 5774 5771 5768 5765 5762
5785 5786 5785 5786 5789 5789 5789 5790 5790 5791 5792 5793 5794 5795 5796 5797 5797 5798 5799 5799 5799 5799 5799 5799 5798 5798 5797 5796 5795 5794 5792 5790 5788 5786 5784 5781 5778 5776 5773 5770 5767 5764 5761 5759
5777 5777 5777 5778 5781 5781 5782 5782 5783 5784 5785 5786 5787 5788 5789 5790 5791 5792 5792 5793 5793 5793 5793 5793 5793 5792 5792 5791 5790 5789 5787 5785 5783 5781 5779 5777 5774 5771 5769 5766 5763 5760 5757 5754
5769 5768 5768 5769 5772 5772 5773 5774 5774 5775 5776 5778 5779 5780 5781 5783 5784 5785 5785 5786 5786 5787 5787 5787 5787 5786 5786 5785 5784 5783 5781 5780 5778 5776 5774 5772 5769 5766 5764 5761 5758 5755 5753 5750
5759 5758 5758 5759 5762 5761 5763 5764 5765 5766 5768 5769 5770 5772 5773 5774 5776 5777 5777 5778 5779 5779 5780 5780 5780 5779 5779 5778 5778 5776 5775 5774 5772 5770 5768 5766 5763 5761 5758 5756 5753 5750 5747 5745